[[{"header":{"parameterUnit":"m.s-1","parameterCategory":1,"la1":30.2991,"la2":30.254,"lo1":-89.0895,"lo2":-89.0444,"dy":0.0017,"dx":0.0017,"nx":28,"ny":28,"refTime":"2024-04-10T09:00:00:Z","depth":0,"parameterNumber":2,"parameterNumberName":"U-component_of_WINDS"},"data":[0,0,0,0,0,0,0,0,0,0,0,0,0,0,0,0,0,0,0,0,0,0,0,0,0,0,0,0,0,0,0,0,0,0,0,0,0,0,0,0,0,0,0,0,0,0,0,0,0,0,0,0,0,0,0,0,0,0,-6.6533,-6.6535,0,-6.6636,-6.6637,-6.6638,-6.6598,-6.6596,-6.6593,-6.6591,-6.6692,-6.6697,-6.6702,0,0,0,0,0,0,0,0,0,0,0,0,0,-6.63,-6.6305,-6.6533,-6.6535,-6.6536,-6.6636,-6.6637,-6.6638,-6.6598,-6.6595,-6.6593,-6.659,-6.6691,-6.6696,-6.6702,0,0,0,0,0,0,0,0,0,0,0,0,0,-6.6402,-6.6306,-6.6533,-6.6528,-6.6529,-6.6635,-6.6637,-6.6639,-6.6599,-6.6595,-6.6592,-6.6588,-6.6689,-6.6696,-6.6703,-6.682,0,0,-6.6726,-6.6729,0,0,0,0,0,0,0,0,-6.6396,-6.641,-6.6527,-6.6529,-6.6529,-6.6601,-6.6592,-6.6699,-6.66,-6.6572,-6.6591,-6.6587,-6.6664,-6.6673,-6.67,-6.6825,-6.6829,-6.6726,-6.6731,-6.6734,-6.6736,0,0,0,0,0,0,0,-6.6389,-6.6406,-6.6574,-6.6529,-6.653,-6.652,-6.653,-6.6612,-6.6637,-6.6574,-6.6572,-6.6584,-6.6664,-6.6693,-6.6702,-6.683,-6.6726,-6.6733,-6.6737,-6.674,-6.7054,-6.7058,0,0,0,0,0,0,-6.6382,-6.64,-6.657,-6.6577,-6.6453,-6.6527,-6.6538,-6.6581,-6.6636,-6.6641,-6.6587,-6.6582,-6.6683,-6.6694,-6.6706,-6.6845,-6.6734,-6.6741,-6.6745,-6.7051,-6.7055,-6.706,0,0,0,0,0,0,-6.6377,-6.6398,-6.6566,-6.6488,-6.6509,-6.6535,-6.6583,-6.6585,-6.6614,-6.6646,-6.665,-6.6613,-6.668,-6.6695,-6.6792,-6.6848,-6.6744,-6.6751,-6.7046,-6.7052,-6.7057,-6.7124,0,0,0,0,0,0,-6.6371,-6.6396,-6.6441,-6.6489,-6.6513,-6.6652,-6.6586,-6.659,-6.6627,-6.6622,-6.6671,-6.6675,-6.6679,-6.6781,-6.6799,-6.6856,-6.6756,-6.7041,-6.7049,-6.7056,-6.7117,-6.7131,-6.7144,0,0,0,0,0,-6.6363,-6.6456,-6.6444,-6.6465,-6.657,-6.6655,-6.6668,-6.6671,-6.6632,-6.6677,-6.6698,-6.6674,-6.684,-6.6791,-6.6811,-6.6871,-6.7037,-6.7046,-6.7055,-6.7111,-6.7129,-6.7144,0,0,0,0,0,0,-6.6412,-6.6462,-6.6449,-6.6561,-6.6604,-6.6648,-6.6705,-6.669,-6.6744,-6.6736,-6.6737,-6.6748,-6.6847,-6.6869,-6.6815,-6.6987,-6.6932,-6.6946,-6.6968,-6.6985,-6.6998,-6.6989,-6.6763,0,0,0,0,0,-6.6437,-6.6502,-6.6542,-6.6636,-6.6659,-6.6678,-6.6715,-6.6714,-6.6758,-6.6776,-6.6803,-6.6846,-6.6908,-6.6948,-6.7007,-6.7121,-6.713,-6.7172,-6.7186,-6.7197,-6.7207,-6.7268,-6.7286,-6.7089,-6.7089,-6.7088,0,0,-6.6486,-6.6522,-6.6563,-6.6647,-6.668,-6.6747,-6.6694,-6.6767,-6.6816,-6.6787,-6.6879,-6.6901,-6.6949,-6.7054,-6.7102,-6.7076,-6.7264,-6.7208,-6.7216,-6.7221,-6.7279,-6.7297,-6.7314,-6.7095,-6.7094,-6.7093,0,0,-6.6611,-6.6645,-6.6727,-6.6762,-6.6814,-6.6827,-6.6846,-6.6893,-6.6907,-6.7,-6.6979,-6.7038,-6.7144,-6.7179,-6.721,-6.735,-6.7329,-6.7369,-6.7438,-6.7498,-6.7513,-6.7527,-6.7574,-6.7592,-6.738,-6.738,-6.738,0,-6.6666,-6.6767,-6.6771,-6.6846,-6.6882,-6.6861,-6.6943,-6.6977,-6.7045,-6.707,-6.704,-6.7173,-6.7204,-6.7317,-6.7351,-6.7378,-6.7399,-6.7362,-6.7511,-6.7525,-6.7537,-6.7583,-6.7601,-6.7385,-6.7384,-6.7384,-6.7383,0,-6.6831,-6.6901,-6.6961,-6.7028,-6.7072,-6.715,-6.7165,-6.7209,-6.7205,-6.722,-6.7315,-6.7352,-6.7417,-6.7444,-6.744,-6.7557,-6.7538,-6.751,-6.7455,-6.7561,-6.7603,-6.762,-6.7391,-6.7389,-6.7388,-6.7387,0,0,-6.6987,-6.7056,-6.7078,-6.7108,-6.7164,-6.7218,-6.7295,-6.736,-6.7397,-6.7445,-6.7508,-6.76,-6.7574,-6.761,-6.761,-6.7663,-6.7768,-6.7628,-6.7629,-6.765,-6.7896,-6.7915,-6.7935,-6.7757,-6.776,-6.7763,-6.7891,0,-6.7113,-6.7249,-6.7256,-6.7379,-6.7443,-6.7425,-6.7491,-6.7533,-6.755,-6.7606,-6.7625,-6.7689,-6.7651,-6.7673,-6.7724,-6.7745,-6.7817,-6.7736,-6.7813,-6.7816,-6.7799,-6.7958,-6.7978,-6.8097,-6.7908,-6.7911,-6.7913,0,-6.7279,-6.7333,-6.7463,-6.751,-6.7537,-6.7597,-6.7657,-6.7712,-6.7758,-6.7767,-6.7808,-6.7801,-6.7878,-6.7824,-6.793,-6.7874,-6.7907,-6.7922,-6.7927,-6.7931,-6.7869,-6.7964,-6.8136,-6.8153,-6.794,-6.7938,-6.7936,0,-6.7377,-6.7482,-6.7573,-6.76,-6.7658,-6.77,-6.7726,-6.7769,-6.7807,-6.786,-6.7885,-6.7946,-6.7978,-6.8025,-6.8033,-6.7993,-6.8139,-6.8086,-6.8147,-6.8147,-6.8176,-6.8173,-6.8352,-6.8202,-6.8202,-6.8201,-6.8201,0,-6.7516,-6.7595,-6.7618,-6.7673,-6.7762,-6.7769,-6.7855,-6.7878,-6.7917,-6.7976,-6.7964,-6.8019,-6.8029,-6.8087,-6.8094,-6.818,-6.8196,-6.8203,-6.8204,-6.8203,-6.8201,-6.8222,-6.8212,-6.8206,-6.8205,-6.8204,-6.8203,0,-6.7638,-6.7657,-6.7754,-6.7802,-6.7816,-6.7878,-6.7918,-6.7971,-6.7988,-6.8062,-6.808,-6.8106,-6.8173,-6.8187,-6.8267,-6.8272,-6.8373,-6.8367,-6.8357,-6.8355,-6.8415,-6.8408,-6.8611,-6.8637,-6.8472,-6.8474,-6.8475,0,-6.7725,-6.7785,-6.784,-6.7879,-6.7907,-6.797,-6.801,-6.8019,-6.8061,-6.8119,-6.8164,-6.823,-6.8283,-6.8391,-6.8416,-6.8476,-6.8469,-6.8536,-6.8478,-6.8475,-6.8467,-6.8462,-6.8467,-6.8546,-6.8548,-6.8549,-6.8551,0,-6.7875,-6.7881,-6.7939,-6.8001,-6.8049,-6.8098,-6.8144,-6.8176,-6.8192,-6.8239,-6.8308,-6.8349,-6.8431,-6.8496,-6.8557,-6.8582,-6.8568,-6.857,-6.8586,-6.8584,-6.8575,-6.8578,-6.8384,-6.8564,-6.8562,-6.8562,-6.8561,-6.856,-6.798,-6.8033,-6.8079,-6.8144,-6.818,-6.8224,-6.8276,-6.83,-6.8357,-6.8425,-6.8427,-6.8502,-6.8546,-6.8627,-6.8656,-6.8714,-6.8693,-6.8718,-6.8724,-6.8729,-6.8733,-6.8569,-6.8725,-6.8725,-6.8725,-6.8724,-6.8724,0,-6.8127,-6.8157,-6.8217,-6.8282,-6.8333,-6.8319,-6.8369,-6.8412,-6.8478,-6.8522,-6.8575,-6.8653,-6.8717,-6.8748,-6.881,-6.885,-6.8845,-6.8866,-6.8861,-6.8867,-6.875,-6.8728,-6.8868,-6.8868,-6.8868,-6.8868,-6.8868,-6.8868,-6.821,-6.8298,-6.831,-6.8415,-6.8444,-6.8518,-6.8548,-6.8587,-6.8622,-6.8711,-6.8764,-6.8784,-6.8822,-6.8887,-6.8944,-6.8952,-6.8974,-6.8997,-6.9001,-6.889,-6.8875,-6.8861,-6.884,-6.9002,-6.9002,-6.9113,-6.9114,-6.9114]},{"header":{"parameterUnit":"m.s-1","parameterCategory":1,"la1":30.2991,"la2":30.254,"lo1":-89.0895,"lo2":-89.0444,"dy":0.0017,"dx":0.0017,"nx":28,"ny":28,"refTime":"2024-04-10T09:00:00:Z","depth":0,"parameterNumber":3,"parameterNumberName":"V-component_of_WINDS"},"data":[0,0,0,0,0,0,0,0,0,0,0,0,0,0,0,0,0,0,0,0,0,0,0,0,0,0,0,0,0,0,0,0,0,0,0,0,0,0,0,0,0,0,0,0,0,0,0,0,0,0,0,0,0,0,0,0,0,0,4.8365,4.8366,0,4.8484,4.8485,4.8487,4.8509,4.8508,4.8508,4.8507,4.8625,4.8629,4.8633,0,0,0,0,0,0,0,0,0,0,0,0,0,4.8154,4.8158,4.8364,4.8366,4.8368,4.8484,4.8485,4.8487,4.851,4.8508,4.8507,4.8506,4.8624,4.8628,4.8633,0,0,0,0,0,0,0,0,0,0,0,0,0,4.8256,4.8159,4.8364,4.8393,4.8397,4.8484,4.8486,4.8488,4.851,4.8508,4.8507,4.8506,4.8622,4.8628,4.8634,4.87,0,0,4.8652,4.8655,0,0,0,0,0,0,0,0,4.8251,4.8264,4.8387,4.8391,4.8395,4.8481,4.8455,4.8559,4.851,4.8467,4.8507,4.8505,4.8578,4.8587,4.8613,4.8705,4.871,4.8653,4.8657,4.8659,4.8661,0,0,0,0,0,0,0,4.8244,4.8259,4.8412,4.8389,4.8394,4.8399,4.8412,4.8475,4.8529,4.847,4.8472,4.8486,4.858,4.8607,4.8616,4.8712,4.8653,4.8658,4.8662,4.8664,4.8867,4.8868,0,0,0,0,0,0,4.8232,4.8253,4.8408,4.8415,4.8318,4.8404,4.8419,4.8455,4.8528,4.8538,4.8487,4.8487,4.8597,4.8609,4.862,4.8703,4.8659,4.8665,4.8668,4.8865,4.8867,4.8869,0,0,0,0,0,0,4.8227,4.8245,4.8403,4.8335,4.8355,4.8409,4.8449,4.8458,4.8485,4.8541,4.855,4.8505,4.8597,4.8611,4.8681,4.8708,4.8668,4.8673,4.8863,4.8866,4.8868,4.8869,0,0,0,0,0,0,4.8221,4.8244,4.8269,4.8335,4.8359,4.8462,4.8451,4.8461,4.8496,4.8496,4.856,4.857,4.8597,4.8671,4.8687,4.8715,4.8678,4.8861,4.8864,4.8867,4.8867,4.8872,4.8875,0,0,0,0,0,4.8213,4.8263,4.827,4.8289,4.8392,4.8464,4.8477,4.8508,4.8498,4.8524,4.8561,4.8568,4.8702,4.8678,4.8695,4.8726,4.8859,4.8863,4.8867,4.8865,4.8871,4.8875,0,0,0,0,0,0,4.8197,4.8273,4.8281,4.8354,4.8403,4.8467,4.8501,4.8513,4.8564,4.8562,4.8598,4.8612,4.8679,4.871,4.8682,4.8795,4.878,4.8787,4.8773,4.8778,4.8783,4.8774,4.8683,0,0,0,0,0,4.8202,4.8255,4.8317,4.8376,4.84,4.8447,4.8479,4.8499,4.855,4.857,4.8611,4.866,4.8713,4.8747,4.88,4.8872,4.8887,4.8902,4.8906,4.8909,4.8915,4.8957,4.8965,4.8882,4.8882,4.8882,0,0,4.8213,4.8261,4.8291,4.8374,4.8414,4.8467,4.8463,4.8519,4.8559,4.8578,4.8647,4.8679,4.8735,4.8807,4.884,4.8834,4.8942,4.8914,4.8916,4.8921,4.8962,4.897,4.8977,4.8884,4.8884,4.8884,0,0,4.826,4.8301,4.8356,4.8396,4.8458,4.8489,4.8502,4.8566,4.8588,4.8658,4.8674,4.8721,4.8812,4.8853,4.8885,4.895,4.8959,4.8966,4.8988,4.9029,4.9035,4.9041,4.9065,4.9074,4.8972,4.8972,4.8972,0,4.8265,4.8347,4.8381,4.8438,4.8474,4.8496,4.8551,4.8589,4.8663,4.8688,4.868,4.8797,4.8836,4.8918,4.8934,4.8959,4.8976,4.8959,4.9032,4.9038,4.9044,4.9068,4.9077,4.8972,4.8972,4.8972,4.8972,0,4.8351,4.8408,4.8444,4.8518,4.8558,4.8613,4.8656,4.8693,4.871,4.8742,4.8813,4.8862,4.8925,4.8946,4.8963,4.9031,4.9026,4.9025,4.901,4.9052,4.9075,4.9084,4.8973,4.8973,4.8973,4.8973,0,0,4.8389,4.8484,4.8497,4.8531,4.8602,4.8646,4.8702,4.8766,4.8798,4.8849,4.8897,4.8975,4.8976,4.9012,4.9034,4.9069,4.912,4.9064,4.9066,4.9073,4.92,4.9201,4.921,4.9126,4.9128,4.913,4.9195,0,4.8445,4.8549,4.8583,4.8668,4.8722,4.8745,4.8794,4.8843,4.8874,4.8924,4.8958,4.9014,4.9009,4.9032,4.9068,4.9106,4.9146,4.9102,4.9172,4.9174,4.9157,4.9222,4.9223,4.9282,4.9204,4.9206,4.9207,0,4.8524,4.8579,4.8671,4.8737,4.876,4.8804,4.8867,4.8914,4.897,4.899,4.9033,4.9052,4.9113,4.9095,4.9179,4.9149,4.918,4.9203,4.9206,4.9213,4.9193,4.9232,4.9302,4.9311,4.9221,4.922,4.9219,0,4.8544,4.8641,4.8709,4.8738,4.8816,4.8847,4.8881,4.8935,4.8972,4.9026,4.9051,4.9111,4.9143,4.9189,4.9224,4.9208,4.9306,4.9291,4.9325,4.9324,4.9344,4.9342,4.942,4.9363,4.9363,4.9363,4.9362,0,4.8604,4.8659,4.872,4.8761,4.8824,4.8863,4.8924,4.8959,4.9008,4.9057,4.9079,4.9125,4.9168,4.9219,4.9247,4.9313,4.9327,4.9346,4.9353,4.9344,4.9342,4.9365,4.9362,4.9365,4.9365,4.9364,4.9364,0,4.8636,4.8679,4.8755,4.8824,4.8843,4.8886,4.8945,4.8986,4.902,4.9082,4.9098,4.9151,4.9212,4.9252,4.933,4.9349,4.9421,4.9426,4.9403,4.9406,4.9438,4.9435,4.9533,4.9549,4.9481,4.9482,4.9482,0,4.8671,4.8715,4.8789,4.8825,4.8859,4.8915,4.8954,4.8994,4.9033,4.9101,4.9135,4.9198,4.9251,4.9349,4.9393,4.9453,4.946,4.9491,4.9469,4.946,4.9462,4.9459,4.9464,4.9494,4.9495,4.9495,4.9496,0,4.873,4.8749,4.8805,4.8868,4.8914,4.8966,4.9017,4.9044,4.9093,4.9136,4.92,4.9242,4.9323,4.9385,4.945,4.9484,4.9499,4.9502,4.9514,4.9505,4.949,4.95,4.9413,4.95,4.9499,4.9499,4.9499,4.9499,4.8765,4.8806,4.8866,4.8927,4.897,4.9019,4.9062,4.9102,4.9156,4.9227,4.9247,4.9314,4.937,4.9459,4.9495,4.9548,4.9544,4.956,4.9564,4.9567,4.9568,4.9482,4.956,4.9559,4.9559,4.9559,4.9559,0,4.8826,4.8866,4.8922,4.8994,4.9043,4.9054,4.9112,4.9151,4.9211,4.9263,4.9316,4.939,4.9452,4.9502,4.9566,4.9599,4.9607,4.9614,4.9612,4.962,4.9567,4.9552,4.9607,4.9607,4.9607,4.9607,4.9607,4.9607,4.8863,4.8933,4.896,4.9052,4.9091,4.9158,4.9191,4.9236,4.9278,4.9361,4.9413,4.9446,4.9498,4.9566,4.9623,4.9636,4.9659,4.9665,4.968,4.9629,4.9624,4.9619,4.9604,4.967,4.967,4.9728,4.9729,4.9729]}]]